QFA15 KSAN-KLAX

Flight info

Callsign QFA15
Flight time 0h 24m
Altitude 10000
Route CWARD2 SLI
Aircraft A320/M-SDE3FGHIRWY/LB1

Departure

Time 2026-04-26 00:18
Airport San Diego International Airport (KSAN)

Arrival

Time 2026-04-26 00:43
Airport Los Angeles International Airport (KLAX)
Time Latitude Longitude Altitude Speed Heading
2026-04-25 23:48 32.73289 -117.19560 27 ft 0 kts 282°
2026-04-26 00:04 32.73289 -117.19561 36 ft 0 kts 282°
2026-04-26 00:04 32.73286 -117.19543 26 ft 2 kts 282°
2026-04-26 00:04 32.73282 -117.19524 27 ft 2 kts 282°
2026-04-26 00:05 32.73278 -117.19504 27 ft 2 kts 287°
2026-04-26 00:05 32.73268 -117.19488 28 ft 3 kts
2026-04-26 00:05 32.73264 -117.19488 27 ft 0 kts 10°
2026-04-26 00:09 32.73286 -117.19483 29 ft 8 kts 11°
2026-04-26 00:09 32.73350 -117.19455 27 ft 12 kts 44°
2026-04-26 00:09 32.73344 -117.19327 26 ft 21 kts 105°
2026-04-26 00:09 32.73300 -117.19134 27 ft 27 kts 105°
2026-04-26 00:10 32.73240 -117.18898 27 ft 33 kts 107°
2026-04-26 00:10 32.73171 -117.18619 27 ft 38 kts 106°
2026-04-26 00:10 32.73132 -117.18452 26 ft 0 kts 105°
2026-04-26 00:10 32.73127 -117.18429 27 ft 12 kts 106°
2026-04-26 00:11 32.73085 -117.18260 29 ft 19 kts 106°
2026-04-26 00:11 32.73082 -117.18247 27 ft 1 kts 107°
2026-04-26 00:11 32.73056 -117.18143 23 ft 25 kts 105°
2026-04-26 00:11 32.73037 -117.18065 23 ft 0 kts 105°
2026-04-26 00:12 32.73037 -117.18063 23 ft 2 kts 105°
2026-04-26 00:12 32.73023 -117.18006 25 ft 0 kts 107°
2026-04-26 00:13 32.73023 -117.18005 24 ft 2 kts 107°
2026-04-26 00:13 32.73001 -117.17919 22 ft 15 kts 106°
2026-04-26 00:14 32.72970 -117.17798 22 ft 15 kts 108°
2026-04-26 00:14 32.72950 -117.17687 22 ft 12 kts 85°
2026-04-26 00:14 32.72953 -117.17669 22 ft 0 kts 76°
2026-04-26 00:16 32.72964 -117.17636 23 ft 11 kts 60°
2026-04-26 00:16 32.73032 -117.17641 24 ft 13 kts 294°
2026-04-26 00:17 32.73039 -117.17672 23 ft 0 kts 285°
2026-04-26 00:17 32.73040 -117.17675 23 ft 3 kts 285°
2026-04-26 00:17 32.73107 -117.17974 23 ft 82 kts 286°
2026-04-26 00:18 32.73346 -117.18937 26 ft 156 kts 287°
2026-04-26 00:18 32.73681 -117.20340 414 ft 186 kts 284°
2026-04-26 00:18 32.74127 -117.21847 1130 ft 204 kts 295°
2026-04-26 00:18 32.74892 -117.23300 2056 ft 212 kts 301°
2026-04-26 00:19 32.75760 -117.24766 2590 ft 231 kts 303°
2026-04-26 00:19 32.76736 -117.26391 3136 ft 250 kts 303°
2026-04-26 00:19 32.77753 -117.28107 4054 ft 256 kts 303°
2026-04-26 00:19 32.78776 -117.29853 5044 ft 259 kts 303°
2026-04-26 00:20 32.79805 -117.31633 6002 ft 263 kts 303°
2026-04-26 00:20 32.80890 -117.33402 6877 ft 267 kts 304°
2026-04-26 00:20 32.82033 -117.35166 7755 ft 271 kts 304°
2026-04-26 00:20 32.83199 -117.36943 8672 ft 274 kts 303°
2026-04-26 00:21 32.84363 -117.38719 9547 ft 279 kts 302°
2026-04-26 00:21 32.85555 -117.40544 9887 ft 280 kts 302°
2026-04-26 00:21 32.86748 -117.42376 9976 ft 280 kts 302°
2026-04-26 00:21 32.87937 -117.44209 9994 ft 279 kts 301°
2026-04-26 00:22 32.89120 -117.46039 9992 ft 279 kts 301°
2026-04-26 00:22 32.90299 -117.47872 9990 ft 279 kts 302°
2026-04-26 00:22 32.91477 -117.49704 9991 ft 279 kts 302°
2026-04-26 00:22 32.92655 -117.51540 9989 ft 279 kts 302°
2026-04-26 00:23 32.93835 -117.53379 9989 ft 279 kts 302°
2026-04-26 00:23 32.94999 -117.55192 9987 ft 280 kts 302°
2026-04-26 00:23 32.96180 -117.57031 9989 ft 280 kts 302°
2026-04-26 00:23 32.97362 -117.58873 9985 ft 280 kts 302°
2026-04-26 00:24 32.98541 -117.60712 9980 ft 279 kts 302°
2026-04-26 00:24 32.99717 -117.62547 9982 ft 279 kts 302°
2026-04-26 00:24 33.00895 -117.64385 9987 ft 279 kts 302°
2026-04-26 00:24 33.02067 -117.66221 9986 ft 279 kts 302°
2026-04-26 00:25 33.03243 -117.68064 9982 ft 279 kts 302°
2026-04-26 00:25 33.04419 -117.69908 9981 ft 279 kts 302°
2026-04-26 00:25 33.05597 -117.71751 9978 ft 280 kts 302°
2026-04-26 00:25 33.06894 -117.73490 9977 ft 284 kts 313°
2026-04-26 00:26 33.08408 -117.75020 9980 ft 285 kts 314°
2026-04-26 00:26 33.09920 -117.76545 9979 ft 285 kts 314°
2026-04-26 00:26 33.11433 -117.78076 9980 ft 285 kts 314°
2026-04-26 00:26 33.12921 -117.79590 9980 ft 285 kts 314°
2026-04-26 00:27 33.14427 -117.81127 9976 ft 285 kts 314°
2026-04-26 00:27 33.15936 -117.82667 9976 ft 285 kts 314°
2026-04-26 00:27 33.17447 -117.84206 9975 ft 285 kts 314°
2026-04-26 00:27 33.19044 -117.85625 9975 ft 290 kts 325°
2026-04-26 00:28 33.20920 -117.86568 9983 ft 296 kts 340°
2026-04-26 00:28 33.22948 -117.87083 9982 ft 298 kts 344°
2026-04-26 00:28 33.24980 -117.87579 9982 ft 298 kts 343°
2026-04-26 00:28 33.27015 -117.88083 9981 ft 298 kts 343°
2026-04-26 00:29 33.29043 -117.88590 9984 ft 298 kts 343°
2026-04-26 00:29 33.31048 -117.89094 9984 ft 298 kts 343°
2026-04-26 00:29 33.33082 -117.89603 9984 ft 298 kts 343°
2026-04-26 00:29 33.35116 -117.90112 9985 ft 299 kts 343°
2026-04-26 00:30 33.37150 -117.90620 9989 ft 299 kts 343°
2026-04-26 00:30 33.39166 -117.91202 9990 ft 296 kts 338°
2026-04-26 00:30 33.41136 -117.91924 9987 ft 296 kts 338°
2026-04-26 00:30 33.43108 -117.92642 9996 ft 296 kts 339°
2026-04-26 00:31 33.45082 -117.93358 9993 ft 297 kts 339°
2026-04-26 00:31 33.47057 -117.94073 9991 ft 297 kts 339°
2026-04-26 00:31 33.49007 -117.94781 9989 ft 297 kts 339°
2026-04-26 00:31 33.50986 -117.95499 9988 ft 297 kts 339°
2026-04-26 00:32 33.52964 -117.96218 9987 ft 298 kts 339°
2026-04-26 00:32 33.54946 -117.96939 9867 ft 296 kts 339°
2026-04-26 00:32 33.58874 -117.98363 9458 ft 292 kts 339°
2026-04-26 00:33 33.60804 -117.99061 8801 ft 289 kts 339°
2026-04-26 00:33 33.62714 -117.99756 8171 ft 285 kts 339°
2026-04-26 00:33 33.64604 -118.00447 7544 ft 282 kts 339°
2026-04-26 00:33 33.66464 -118.01128 7099 ft 277 kts 339°
2026-04-26 00:34 33.68292 -118.01799 6991 ft 279 kts 340°
2026-04-26 00:34 33.70116 -118.02466 6997 ft 266 kts 339°
2026-04-26 00:34 33.71830 -118.03088 7003 ft 249 kts 339°
2026-04-26 00:34 33.73441 -118.03670 7016 ft 234 kts 339°
2026-04-26 00:35 33.74971 -118.04227 7007 ft 232 kts 339°
2026-04-26 00:35 33.76523 -118.04794 6960 ft 234 kts 339°
2026-04-26 00:35 33.78085 -118.05362 6960 ft 235 kts 339°
2026-04-26 00:35 33.79649 -118.05935 6958 ft 234 kts 337°
2026-04-26 00:36 33.81154 -118.06665 6973 ft 232 kts 332°
2026-04-26 00:36 33.82610 -118.07466 6715 ft 228 kts 331°
2026-04-26 00:36 33.84040 -118.08263 6272 ft 226 kts 331°
2026-04-26 00:36 33.85464 -118.09067 5758 ft 227 kts 331°
2026-04-26 00:37 33.86888 -118.09888 5269 ft 227 kts 330°
2026-04-26 00:37 33.88292 -118.10702 4810 ft 226 kts 332°
2026-04-26 00:37 33.89707 -118.11535 4325 ft 226 kts 331°
2026-04-26 00:37 33.91112 -118.12374 3879 ft 224 kts 331°
2026-04-26 00:38 33.92506 -118.13190 3593 ft 220 kts 332°
2026-04-26 00:38 33.93887 -118.14019 3591 ft 222 kts 326°
2026-04-26 00:38 33.95019 -118.15251 3590 ft 219 kts 302°
2026-04-26 00:38 33.95657 -118.16879 3592 ft 215 kts 281°
2026-04-26 00:39 33.95724 -118.18658 3576 ft 214 kts 262°
2026-04-26 00:39 33.95545 -118.20441 3151 ft 216 kts 260°
2026-04-26 00:39 33.95362 -118.22213 2807 ft 211 kts 262°
2026-04-26 00:39 33.95184 -118.23966 2508 ft 210 kts 262°
2026-04-26 00:40 33.95009 -118.25700 2220 ft 206 kts 262°
2026-04-26 00:40 33.94841 -118.27366 1941 ft 199 kts 262°
2026-04-26 00:40 33.94680 -118.28962 1693 ft 188 kts 262°
2026-04-26 00:40 33.94530 -118.30453 1465 ft 171 kts 263°
2026-04-26 00:41 33.94392 -118.31813 1237 ft 155 kts 262°
2026-04-26 00:41 33.94268 -118.33037 1017 ft 143 kts 262°
2026-04-26 00:41 33.94152 -118.34185 827 ft 133 kts 261°
2026-04-26 00:41 33.94040 -118.35278 644 ft 131 kts 262°
2026-04-26 00:42 33.93930 -118.36359 463 ft 130 kts 264°
2026-04-26 00:42 33.93821 -118.37426 298 ft 127 kts 262°
2026-04-26 00:42 33.93718 -118.38479 147 ft 125 kts 261°
2026-04-26 00:42 33.93621 -118.39330 123 ft 67 kts 265°
2026-04-26 00:43 33.93606 -118.39732 126 ft 43 kts 274°
2026-04-26 00:43 33.93663 -118.40048 126 ft 26 kts 273°
2026-04-26 00:43 33.93661 -118.40081 126 ft 0 kts 265°
2026-04-26 00:44 33.93661 -118.40089 126 ft 6 kts 265°
2026-04-26 00:44 33.93650 -118.40212 122 ft 21 kts 262°
2026-04-26 00:44 33.93629 -118.40415 126 ft 27 kts 263°
2026-04-26 00:44 33.93610 -118.40597 126 ft 0 kts 262°
2026-04-26 00:45 33.93607 -118.40623 121 ft 15 kts 262°
2026-04-26 00:45 33.93602 -118.40675 126 ft 0 kts 262°
2026-04-26 00:45 33.93598 -118.40725 126 ft 24 kts 268°
2026-04-26 00:46 33.93699 -118.40897 123 ft 28 kts 355°
2026-04-26 00:46 33.93787 -118.40915 126 ft 0 kts 351°
2026-04-26 00:47 33.93791 -118.40915 126 ft 4 kts 351°
2026-04-26 00:47 33.93867 -118.40945 122 ft 2 kts 288°
2026-04-26 00:47 33.93863 -118.40996 125 ft 15 kts 260°
2026-04-26 00:47 33.93845 -118.41145 126 ft 17 kts 275°
2026-04-26 00:48 33.93865 -118.41176 120 ft 0 kts 321°
2026-04-26 00:49 33.93866 -118.41177 120 ft 0 kts 321°
2026-04-26 00:49 33.93888 -118.41183 121 ft 9 kts 352°
2026-04-26 00:50 33.93963 -118.41186 125 ft 13 kts 358°
2026-04-26 00:50 33.94069 -118.41196 122 ft 17 kts 354°
2026-04-26 00:50 33.94189 -118.41211 124 ft 18 kts 354°
2026-04-26 00:50 33.94314 -118.41226 122 ft 15 kts 355°
2026-04-26 00:51 33.94397 -118.41182 124 ft 13 kts 69°
2026-04-26 00:51 33.94401 -118.41153 121 ft 4 kts 81°
2026-04-26 00:51 33.94404 -118.41119 126 ft 4 kts 86°
2026-04-26 00:51 33.94404 -118.41116 126 ft 0 kts 86°